Simultaneous Nadir Overpasses (SNOs) Predictions

Prediction of SNOs between AQUA and NOAA-19 Satellite Orbit:

Table of predicted SNOs for the next 14.0 days since TLE Epoch: 7/1/2013
Index Date (AQUA) Time (AQUA) Lat,Lon (AQUA) SZA (AQUA ) Date (NOAA-19) Time (NOAA-19) Lat,Lon (NOAA-19) SZA (NOAA-19 ) Distance(km) Time Diff (sec)
1 07/01/2013 23:32:00 52.67,-159.88 30.89 07/01/2013 23:31:19 52.67,-159.88 30.86 0.33 41
2 07/02/2013 00:19:30 -46.08, 10.52 154.32 07/02/2013 00:20:25 -46.07, 10.33 154.32 14.45 55
3 07/04/2013 02:34:26 53.33, 154.25 31.59 07/04/2013 02:33:44 53.33, 154.24 31.56 0.41 42
4 07/04/2013 03:21:44 -46.06, -35.04 154.22 07/04/2013 03:22:38 -46.01, -35.19 154.23 13.44 54
5 07/06/2013 05:35:01 49.44, 110.56 28.55 07/06/2013 05:34:49 49.43, 110.58 28.54 1.01 12
6 07/08/2013 07:47:58 -53.79,-104.32 147.63 07/08/2013 07:47:19 -53.80,-104.34 147.66 1.26 39
7 07/08/2013 08:35:11 46.07, 66.60 26.13 07/08/2013 08:36:03 46.04, 66.47 26.13 11.16 52
8 07/10/2013 09:59:17 54.13, 42.71 32.89 07/10/2013 09:58:34 54.13, 42.71 32.86 0.36 43
9 07/10/2013 10:46:20 -46.07,-146.17 153.67 07/10/2013 10:47:16 -46.05,-146.32 153.65 11.79 56
10 07/12/2013 12:08:52 -50.56,-168.28 149.86 07/12/2013 12:08:44 -50.56,-168.30 149.87 1.17 8
11 07/14/2013 13:30:26 -53.54, 170.18 147.07 07/14/2013 13:29:45 -53.53, 170.21 147.10 1.77 41




NCC Satellite Simultaneous Nadir Overpasses (SNOs) Prediction Service
